Time,TemperatureF,DewpointF,PressureIn,WindDirection,WindDirectionDegrees,WindSpeedMPH,WindSpeedGustMPH,Humidity,HourlyPrecipIn,Conditions,Clouds,dailyrainin,SoftwareType,DateUTC
2013-02-17 00:00:00,24.4,-0.8,31.90,North,8,0.0,0.0,33,0.00,NA,NA,-99.99,wxupload 3.4,2013-02-17 05:00:00,
2013-02-17 00:04:00,24.4,-0.8,31.90,North,353,2.0,6.0,33,0.00,NA,NA,-99.99,wxupload 3.4,2013-02-17 05:04:00,
2013-02-17 00:06:00,24.4,-0.8,31.90,North,0,0.0,0.0,33,0.00,NA,NA,-99.99,wxupload 3.4,2013-02-17 05:06:00,
2013-02-17 00:11:00,24.4,-0.8,31.90,North,5,0.0,4.0,33,0.00,NA,NA,-99.99,wxupload 3.4,2013-02-17 05:11:00,
2013-02-17 00:16:00,24.4,-0.8,31.90,NNW,335,0.0,0.0,33,0.00,NA,NA,-99.99,wxupload 3.4,2013-02-17 05:16:00,
2013-02-17 00:22:00,23.9,-1.3,31.90,NNE,31,3.0,6.0,33,0.00,NA,NA,-99.99,wxupload 3.4,2013-02-17 05:22:00,
2013-02-17 00:28:00,24.4,-0.2,31.90,NNE,31,0.0,0.0,34,0.00,NA,NA,-99.99,wxupload 3.4,2013-02-17 05:28:00,
2013-02-17 00:35:00,24.1,-0.5,31.90,NNE,33,0.0,3.0,34,0.00,NA,NA,-99.99,wxupload 3.4,2013-02-17 05:35:00,
2013-02-17 00:40:00,24.1,-0.5,31.90,North,353,0.0,0.0,34,0.00,NA,NA,-99.99,wxupload 3.4,2013-02-17 05:40:00,
2013-02-17 00:46:00,24.1,0.1,31.90,NNE,16,0.0,2.0,35,0.00,NA,NA,-99.99,wxupload 3.4,2013-02-17 05:46:00,
2013-02-17 00:52:00,24.1,0.1,31.90,NNW,343,0.0,0.0,35,0.00,NA,NA,-99.99,wxupload 3.4,2013-02-17 05:52:00,
2013-02-17 00:59:00,24.1,0.1,31.90,West,275,0.0,0.0,35,0.00,NA,NA,-99.99,wxupload 3.4,2013-02-17 05:59:00,
2013-02-17 01:04:00,23.7,-0.2,31.90,WNW,286,3.0,6.0,35,0.00,NA,NA,-99.99,wxupload 3.4,2013-02-17 06:04:00,
2013-02-17 01:10:00,23.9,0.0,31.90,NW,324,0.0,2.0,35,0.00,NA,NA,-99.99,wxupload 3.4,2013-02-17 06:10:00,
2013-02-17 01:16:00,23.9,0.0,31.90,WNW,293,0.0,0.0,35,0.00,NA,NA,-99.99,wxupload 3.4,2013-02-17 06:16:00,
2013-02-17 01:23:00,23.5,-0.4,31.90,NE,37,0.0,2.0,35,0.00,NA,NA,-99.99,wxupload 3.4,2013-02-17 06:23:00,
2013-02-17 01:28:00,23.5,-0.4,31.90,NE,37,0.0,0.0,35,0.00,NA,NA,-99.99,wxupload 3.4,2013-02-17 06:28:00,
2013-02-17 01:34:00,23.5,-0.4,31.90,NNE,16,0.0,0.0,35,0.00,NA,NA,-99.99,wxupload 3.4,2013-02-17 06:34:00,
2013-02-17 01:40:00,23.4,-0.5,31.90,NNE,28,0.0,0.0,35,0.00,NA,NA,-99.99,wxupload 3.4,2013-02-17 06:40:00,
2013-02-17 01:47:00,23.2,-0.7,31.90,NNE,28,0.0,0.0,35,0.00,NA,NA,-99.99,wxupload 3.4,2013-02-17 06:47:00,
2013-02-17 01:52:00,22.8,-0.4,31.90,NNE,28,0.0,0.0,36,0.00,NA,NA,-99.99,wxupload 3.4,2013-02-17 06:52:00,
2013-02-17 01:58:00,22.5,-0.7,31.90,NNE,28,0.0,0.0,36,0.00,NA,NA,-99.99,wxupload 3.4,2013-02-17 06:58:00,
2013-02-17 02:04:00,22.1,-1.1,31.90,NNE,28,0.0,0.0,36,0.00,NA,NA,-99.99,wxupload 3.4,2013-02-17 07:04:00,
2013-02-17 02:11:00,22.1,-1.1,31.90,NNE,28,0.0,0.0,36,0.00,NA,NA,-99.99,wxupload 3.4,2013-02-17 07:11:00,
2013-02-17 02:16:00,21.9,-1.2,31.90,NNE,28,0.0,0.0,36,0.00,NA,NA,-99.99,wxupload 3.4,2013-02-17 07:16:00,
2013-02-17 02:22:00,21.7,-1.4,31.90,East,84,0.0,0.0,36,0.00,NA,NA,-99.99,wxupload 3.4,2013-02-17 07:22:00,
2013-02-17 02:28:00,21.6,-1.0,31.90,NE,54,0.0,0.0,37,0.00,NA,NA,-99.99,wxupload 3.4,2013-02-17 07:28:00,
2013-02-17 02:35:00,21.7,-0.2,31.90,NNE,14,0.0,0.0,38,0.00,NA,NA,-99.99,wxupload 3.4,2013-02-17 07:35:00,
2013-02-17 02:40:00,21.9,0.5,31.90,NE,45,0.0,0.0,39,0.00,NA,NA,-99.99,wxupload 3.4,2013-02-17 07:40:00,
2013-02-17 02:46:00,22.1,1.2,31.90,NNW,340,0.0,0.0,40,0.00,NA,NA,-99.99,wxupload 3.4,2013-02-17 07:46:00,
2013-02-17 02:52:00,22.1,1.8,31.90,NNE,28,0.0,0.0,41,0.00,NA,NA,-99.99,wxupload 3.4,2013-02-17 07:52:00,
2013-02-17 02:59:00,22.1,2.3,31.90,NNE,24,0.0,0.0,42,0.00,NA,NA,-99.99,wxupload 3.4,2013-02-17 07:59:00,
2013-02-17 03:04:00,21.9,2.1,31.90,WNW,299,0.0,0.0,42,0.00,NA,NA,-99.99,wxupload 3.4,2013-02-17 08:04:00,
2013-02-17 03:10:00,21.9,2.1,31.90,NE,41,0.0,0.0,42,0.00,NA,NA,-99.99,wxupload 3.4,2013-02-17 08:10:00,
2013-02-17 03:16:00,21.9,1.6,31.90,WNW,301,0.0,0.0,41,0.00,NA,NA,-99.99,wxupload 3.4,2013-02-17 08:16:00,
2013-02-17 03:23:00,21.6,1.3,31.90,WNW,301,0.0,0.0,41,0.00,NA,NA,-99.99,wxupload 3.4,2013-02-17 08:23:00,
2013-02-17 03:28:00,21.2,1.5,31.90,NNW,327,0.0,0.0,42,0.00,NA,NA,-99.99,wxupload 3.4,2013-02-17 08:28:00,
2013-02-17 03:34:00,21.2,2.0,31.90,North,2,0.0,0.0,43,0.00,NA,NA,-99.99,wxupload 3.4,2013-02-17 08:34:00,
2013-02-17 03:40:00,21.4,1.6,31.90,NE,39,0.0,0.0,42,0.00,NA,NA,-99.99,wxupload 3.4,2013-02-17 08:40:00,
2013-02-17 03:47:00,21.9,2.6,31.90,NE,39,0.0,3.0,43,0.00,NA,NA,-99.99,wxupload 3.4,2013-02-17 08:47:00,
2013-02-17 03:52:00,22.3,3.0,31.90,WNW,286,0.0,0.0,43,0.00,NA,NA,-99.99,wxupload 3.4,2013-02-17 08:52:00,
2013-02-17 03:58:00,22.5,3.1,31.90,NNE,16,0.0,0.0,43,0.00,NA,NA,-99.99,wxupload 3.4,2013-02-17 08:58:00,
2013-02-17 04:04:00,22.5,3.1,31.90,NNE,16,0.0,0.0,43,0.00,NA,NA,-99.99,wxupload 3.4,2013-02-17 09:04:00,
2013-02-17 04:11:00,22.5,3.1,31.90,NE,40,0.0,0.0,43,0.00,NA,NA,-99.99,wxupload 3.4,2013-02-17 09:11:00,
2013-02-17 04:16:00,22.8,3.5,31.90,WSW,250,0.0,0.0,43,0.00,NA,NA,-99.99,wxupload 3.4,2013-02-17 09:16:00,
2013-02-17 04:22:00,23.2,3.8,31.90,NNE,15,0.0,0.0,43,0.00,NA,NA,-99.99,wxupload 3.4,2013-02-17 09:22:00,
2013-02-17 04:28:00,23.5,4.1,31.90,ENE,62,0.0,3.0,43,0.00,NA,NA,-99.99,wxupload 3.4,2013-02-17 09:28:00,
2013-02-17 04:35:00,23.7,3.8,31.90,NNW,338,0.0,0.0,42,0.00,NA,NA,-99.99,wxupload 3.4,2013-02-17 09:35:00,
2013-02-17 04:40:00,23.7,3.8,31.90,NW,317,0.0,0.0,42,0.00,NA,NA,-99.99,wxupload 3.4,2013-02-17 09:40:00,
2013-02-17 04:46:00,23.9,4.0,31.90,ENE,74,0.0,0.0,42,0.00,NA,NA,-99.99,wxupload 3.4,2013-02-17 09:46:00,
2013-02-17 04:52:00,23.5,3.1,31.90,NW,316,0.0,4.0,41,0.00,NA,NA,-99.99,wxupload 3.4,2013-02-17 09:52:00,
2013-02-17 04:58:00,23.2,2.8,31.90,NNW,335,2.0,3.0,41,0.00,NA,NA,-99.99,wxupload 3.4,2013-02-17 09:58:00,
2013-02-17 05:06:00,22.6,2.3,31.90,NNW,333,0.0,3.0,41,0.00,NA,NA,-99.99,wxupload 3.4,2013-02-17 10:06:00,
2013-02-17 05:13:00,22.5,1.6,31.90,WNW,301,0.0,0.0,40,0.00,NA,NA,-99.99,wxupload 3.4,2013-02-17 10:13:00,
2013-02-17 05:18:00,21.9,1.6,31.90,NNE,22,0.0,0.0,41,0.00,NA,NA,-99.99,wxupload 3.4,2013-02-17 10:18:00,
2013-02-17 05:24:00,21.9,1.6,31.90,NE,35,0.0,4.0,41,0.00,NA,NA,-99.99,wxupload 3.4,2013-02-17 10:24:00,
2013-02-17 05:30:00,21.9,1.1,31.90,NNW,340,0.0,4.0,40,0.00,NA,NA,-99.99,wxupload 3.4,2013-02-17 10:30:00,
2013-02-17 05:37:00,21.9,0.5,31.90,NNE,24,0.0,0.0,39,0.00,NA,NA,-99.99,wxupload 3.4,2013-02-17 10:37:00,
2013-02-17 05:42:00,21.7,0.4,31.90,West,266,0.0,0.0,39,0.00,NA,NA,-99.99,wxupload 3.4,2013-02-17 10:42:00,
2013-02-17 05:48:00,21.6,0.7,31.90,NW,306,0.0,0.0,40,0.00,NA,NA,-99.99,wxupload 3.4,2013-02-17 10:48:00,
2013-02-17 05:54:00,21.6,0.2,31.90,North,8,0.0,4.0,39,0.00,NA,NA,-99.99,wxupload 3.4,2013-02-17 10:54:00,
2013-02-17 06:01:00,21.6,0.2,31.90,NW,318,0.0,3.0,39,0.00,NA,NA,-99.99,wxupload 3.4,2013-02-17 11:01:00,
2013-02-17 06:06:00,21.6,-0.4,31.90,WNW,295,3.0,4.0,38,0.00,NA,NA,-99.99,wxupload 3.4,2013-02-17 11:06:00,
2013-02-17 06:12:00,21.7,0.4,31.90,North,6,0.0,0.0,39,0.00,NA,NA,-99.99,wxupload 3.4,2013-02-17 11:12:00,
2013-02-17 06:18:00,21.6,-0.4,31.90,North,357,0.0,0.0,38,0.00,NA,NA,-99.99,wxupload 3.4,2013-02-17 11:18:00,
2013-02-17 06:24:00,21.4,-0.5,31.90,NW,316,4.0,4.0,38,0.00,NA,NA,-99.99,wxupload 3.4,2013-02-17 11:24:00,
2013-02-17 06:30:00,21.4,0.0,31.90,West,260,0.0,3.0,39,0.00,NA,NA,-99.99,wxupload 3.4,2013-02-17 11:30:00,
2013-02-17 06:36:00,21.2,-0.1,31.92,North,10,2.0,7.0,39,0.00,NA,NA,-99.99,wxupload 3.4,2013-02-17 11:36:00,
2013-02-17 06:42:00,21.2,-0.1,31.92,NW,322,3.0,4.0,39,0.00,NA,NA,-99.99,wxupload 3.4,2013-02-17 11:42:00,
2013-02-17 06:48:00,21.2,-0.1,31.92,NNW,333,2.0,6.0,39,0.00,NA,NA,-99.99,wxupload 3.4,2013-02-17 11:48:00,
2013-02-17 06:54:00,21.4,-0.5,31.92,NW,318,2.0,4.0,38,0.00,NA,NA,-99.99,wxupload 3.4,2013-02-17 11:54:00,
2013-02-17 07:00:00,21.7,-0.8,31.92,NNW,340,0.0,0.0,37,0.00,NA,NA,-99.99,wxupload 3.4,2013-02-17 12:00:00,
2013-02-17 07:06:00,21.9,-0.6,31.92,North,357,0.0,0.0,37,0.00,NA,NA,-99.99,wxupload 3.4,2013-02-17 12:06:00,
2013-02-17 07:12:00,21.9,-0.6,31.92,NNW,330,0.0,0.0,37,0.00,NA,NA,-99.99,wxupload 3.4,2013-02-17 12:12:00,
2013-02-17 07:18:00,22.3,-0.3,31.92,North,2,0.0,3.0,37,0.00,NA,NA,-99.99,wxupload 3.4,2013-02-17 12:18:00,
2013-02-17 07:24:00,22.6,-0.6,31.92,NNE,33,0.0,0.0,36,0.00,NA,NA,-99.99,wxupload 3.4,2013-02-17 12:24:00,
2013-02-17 07:31:00,22.8,0.8,31.92,WSW,250,4.0,4.0,38,0.00,NA,NA,-99.99,wxupload 3.4,2013-02-17 12:31:00,
2013-02-17 07:36:00,22.6,5.3,31.95,NNW,340,6.0,11.0,47,0.00,NA,NA,-99.99,wxupload 3.4,2013-02-17 12:36:00,
2013-02-17 07:42:00,21.9,8.1,31.95,NNE,14,3.0,4.0,55,0.00,NA,NA,-99.99,wxupload 3.4,2013-02-17 12:42:00,
2013-02-17 07:48:00,21.9,9.3,31.95,North,1,0.0,0.0,58,0.00,NA,NA,-99.99,wxupload 3.4,2013-02-17 12:48:00,
2013-02-17 07:55:00,22.1,10.2,31.95,North,9,0.0,3.0,60,0.00,NA,NA,-99.99,wxupload 3.4,2013-02-17 12:55:00,
2013-02-17 08:00:00,21.9,10.4,31.95,NW,309,0.0,0.0,61,0.00,NA,NA,-99.99,wxupload 3.4,2013-02-17 13:00:00,
2013-02-17 08:06:00,21.9,10.4,31.95,WNW,300,0.0,0.0,61,0.00,NA,NA,-99.99,wxupload 3.4,2013-02-17 13:06:00,
2013-02-17 08:12:00,22.1,10.6,31.95,North,1,0.0,0.0,61,0.00,NA,NA,-99.99,wxupload 3.4,2013-02-17 13:12:00,
2013-02-17 08:19:00,22.1,11.0,31.95,NNE,25,0.0,0.0,62,0.00,NA,NA,-99.99,wxupload 3.4,2013-02-17 13:19:00,
2013-02-17 08:24:00,21.7,10.6,31.95,NNW,342,0.0,0.0,62,0.00,NA,NA,-99.99,wxupload 3.4,2013-02-17 13:24:00,
2013-02-17 08:30:00,21.9,11.2,31.95,NW,325,0.0,0.0,63,0.00,NA,NA,-99.99,wxupload 3.4,2013-02-17 13:30:00,
2013-02-17 08:36:00,21.9,10.4,31.95,NNW,340,0.0,2.0,61,0.00,NA,NA,-99.99,wxupload 3.4,2013-02-17 13:36:00,
2013-02-17 08:43:00,21.7,9.1,31.95,NNW,330,4.0,4.0,58,0.00,NA,NA,-99.99,wxupload 3.4,2013-02-17 13:43:00,
2013-02-17 08:48:00,21.2,7.0,31.95,NNW,331,4.0,4.0,54,0.00,NA,NA,-99.99,wxupload 3.4,2013-02-17 13:48:00,
2013-02-17 08:54:00,20.8,4.5,31.95,North,0,3.0,8.0,49,0.00,NA,NA,-99.99,wxupload 3.4,2013-02-17 13:54:00,
2013-02-17 09:00:00,21.0,3.8,31.95,NNW,345,0.0,0.0,47,0.00,NA,NA,-99.99,wxupload 3.4,2013-02-17 14:00:00,
2013-02-17 09:07:00,21.6,3.8,31.95,NNE,23,4.0,6.0,46,0.00,NA,NA,-99.99,wxupload 3.4,2013-02-17 14:07:00,
2013-02-17 09:12:00,22.3,4.0,31.95,North,0,4.0,5.0,45,0.00,NA,NA,-99.99,wxupload 3.4,2013-02-17 14:12:00,
2013-02-17 09:18:00,22.3,2.5,31.95,NNW,328,4.0,5.0,42,0.00,NA,NA,-99.99,wxupload 3.4,2013-02-17 14:18:00,
2013-02-17 09:24:00,22.5,2.6,31.95,NNW,341,4.0,6.0,42,0.00,NA,NA,-99.99,wxupload 3.4,2013-02-17 14:24:00,
2013-02-17 09:31:00,22.3,2.5,31.95,NNW,328,4.0,6.0,42,0.00,NA,NA,-99.99,wxupload 3.4,2013-02-17 14:31:00,
2013-02-17 09:36:00,22.8,3.0,31.95,WNW,286,0.0,0.0,42,0.00,NA,NA,-99.99,wxupload 3.4,2013-02-17 14:36:00,
2013-02-17 09:42:00,23.4,3.5,31.95,West,266,3.0,6.0,42,0.00,NA,NA,-99.99,wxupload 3.4,2013-02-17 14:42:00,
2013-02-17 09:48:00,23.0,0.9,31.98,ENE,70,4.0,9.0,38,0.00,NA,NA,-99.99,wxupload 3.4,2013-02-17 14:48:00,
2013-02-17 09:55:00,22.6,0.0,31.98,NW,307,4.0,4.0,37,0.00,NA,NA,-99.99,wxupload 3.4,2013-02-17 14:55:00,
2013-02-17 10:00:00,23.0,0.9,31.98,North,2,3.0,5.0,38,0.00,NA,NA,-99.99,wxupload 3.4,2013-02-17 15:00:00,
2013-02-17 10:06:00,23.7,1.0,31.98,North,353,3.0,5.0,37,0.00,NA,NA,-99.99,wxupload 3.4,2013-02-17 15:06:00,
2013-02-17 10:12:00,24.8,2.6,31.98,NNW,328,5.0,5.0,38,0.00,NA,NA,-99.99,wxupload 3.4,2013-02-17 15:12:00,
2013-02-17 10:19:00,25.2,1.7,31.98,NNW,341,4.0,5.0,36,0.00,NA,NA,-99.99,wxupload 3.4,2013-02-17 15:19:00,
2013-02-17 10:24:00,25.3,1.3,31.98,NNE,15,2.0,6.0,35,0.00,NA,NA,-99.99,wxupload 3.4,2013-02-17 15:24:00,
2013-02-17 10:30:00,25.3,0.6,31.98,WNW,294,0.0,5.0,34,0.00,NA,NA,-99.99,wxupload 3.4,2013-02-17 15:30:00,
2013-02-17 10:36:00,25.7,1.0,31.98,North,357,5.0,8.0,34,0.00,NA,NA,-99.99,wxupload 3.4,2013-02-17 15:36:00,
2013-02-17 10:42:00,26.1,1.3,31.98,NW,319,3.0,4.0,34,0.00,NA,NA,-99.99,wxupload 3.4,2013-02-17 15:42:00,
2013-02-17 10:48:00,26.4,1.6,31.98,North,11,4.0,6.0,34,0.00,NA,NA,-99.99,wxupload 3.4,2013-02-17 15:48:00,
2013-02-17 10:54:00,27.0,2.1,31.98,NNW,333,4.0,8.0,34,0.00,NA,NA,-99.99,wxupload 3.4,2013-02-17 15:54:00,
2013-02-17 11:01:00,27.0,1.4,31.98,NW,314,4.0,5.0,33,0.00,NA,NA,-99.99,wxupload 3.4,2013-02-17 16:01:00,
2013-02-17 11:06:00,27.5,1.3,32.01,NW,314,5.0,7.0,32,0.00,NA,NA,-99.99,wxupload 3.4,2013-02-17 16:06:00,
2013-02-17 11:12:00,27.9,1.6,32.01,NNW,337,4.0,8.0,32,0.00,NA,NA,-99.99,wxupload 3.4,2013-02-17 16:12:00,
2013-02-17 11:18:00,28.4,2.1,32.01,NNW,331,5.0,6.0,32,0.00,NA,NA,-99.99,wxupload 3.4,2013-02-17 16:18:00,
2013-02-17 11:25:00,29.1,2.7,32.01,WNW,283,3.0,6.0,32,0.00,NA,NA,-99.99,wxupload 3.4,2013-02-17 16:25:00,
2013-02-17 11:30:00,28.9,1.9,32.01,NNW,336,4.0,5.0,31,0.00,NA,NA,-99.99,wxupload 3.4,2013-02-17 16:30:00,
2013-02-17 11:36:00,28.8,2.4,32.01,NW,324,3.0,5.0,32,0.00,NA,NA,-99.99,wxupload 3.4,2013-02-17 16:36:00,
2013-02-17 11:42:00,29.1,2.0,32.01,NW,323,4.0,5.0,31,0.00,NA,NA,-99.99,wxupload 3.4,2013-02-17 16:42:00,
2013-02-17 11:49:00,29.1,2.0,32.01,NNW,340,6.0,6.0,31,0.00,NA,NA,-99.99,wxupload 3.4,2013-02-17 16:49:00,
2013-02-17 11:54:00,29.5,2.3,32.01,NNW,341,0.0,3.0,31,0.00,NA,NA,-99.99,wxupload 3.4,2013-02-17 16:54:00,
2013-02-17 12:00:00,28.4,1.4,32.01,NW,305,6.0,8.0,31,0.00,NA,NA,-99.99,wxupload 3.4,2013-02-17 17:00:00,
2013-02-17 12:06:00,28.0,1.7,32.01,NNW,343,5.0,5.0,32,0.00,NA,NA,-99.99,wxupload 3.4,2013-02-17 17:06:00,
2013-02-17 12:13:00,28.0,1.0,32.01,NNW,328,5.0,6.0,31,0.00,NA,NA,-99.99,wxupload 3.4,2013-02-17 17:13:00,
2013-02-17 12:18:00,29.3,2.9,32.01,NNW,327,2.0,7.0,32,0.00,NA,NA,-99.99,wxupload 3.4,2013-02-17 17:18:00,
2013-02-17 12:24:00,30.4,3.1,32.01,NW,311,2.0,6.0,31,0.00,NA,NA,-99.99,wxupload 3.4,2013-02-17 17:24:00,
2013-02-17 12:30:00,30.6,3.3,32.01,NNW,335,6.0,8.0,31,0.00,NA,NA,-99.99,wxupload 3.4,2013-02-17 17:30:00,
2013-02-17 12:37:00,30.7,3.5,32.01,WNW,286,6.0,6.0,31,0.00,NA,NA,-99.99,wxupload 3.4,2013-02-17 17:37:00,
2013-02-17 12:42:00,30.9,3.6,32.01,NNE,17,2.0,4.0,31,0.00,NA,NA,-99.99,wxupload 3.4,2013-02-17 17:42:00,
2013-02-17 12:48:00,30.6,3.3,32.01,WNW,289,3.0,4.0,31,0.00,NA,NA,-99.99,wxupload 3.4,2013-02-17 17:48:00,
2013-02-17 12:54:00,30.6,2.6,32.01,WNW,290,5.0,8.0,30,0.00,NA,NA,-99.99,wxupload 3.4,2013-02-17 17:54:00,
2013-02-17 13:01:00,29.8,2.7,32.01,NNE,24,0.0,0.0,31,0.00,NA,NA,-99.99,wxupload 3.4,2013-02-17 18:01:00,
2013-02-17 13:06:00,29.3,1.5,32.01,North,0,3.0,5.0,30,0.00,NA,NA,-99.99,wxupload 3.4,2013-02-17 18:06:00,
2013-02-17 13:12:00,28.6,0.8,32.01,NNE,17,4.0,11.0,30,0.00,NA,NA,-99.99,wxupload 3.4,2013-02-17 18:12:00,
2013-02-17 13:19:00,27.5,-1.6,32.01,NNE,14,4.0,11.0,28,0.00,NA,NA,-99.99,wxupload 3.4,2013-02-17 18:19:00,
2013-02-17 13:24:00,27.9,0.9,32.01,North,357,0.0,2.0,31,0.00,NA,NA,-99.99,wxupload 3.4,2013-02-17 18:24:00,
2013-02-17 13:30:00,28.4,1.4,32.01,NW,324,4.0,6.0,31,0.00,NA,NA,-99.99,wxupload 3.4,2013-02-17 18:30:00,
2013-02-17 13:36:00,28.2,1.2,32.01,NNW,333,4.0,11.0,31,0.00,NA,NA,-99.99,wxupload 3.4,2013-02-17 18:36:00,
2013-02-17 13:43:00,28.6,1.5,32.01,NNW,345,3.0,4.0,31,0.00,NA,NA,-99.99,wxupload 3.4,2013-02-17 18:43:00,
2013-02-17 13:48:00,27.9,0.9,32.01,NNW,331,4.0,5.0,31,0.00,NA,NA,-99.99,wxupload 3.4,2013-02-17 18:48:00,
2013-02-17 13:54:00,28.2,1.2,32.01,NNW,345,7.0,11.0,31,0.00,NA,NA,-99.99,wxupload 3.4,2013-02-17 18:54:00,
2013-02-17 14:00:00,27.7,0.7,32.01,NNE,32,6.0,8.0,31,0.00,NA,NA,-99.99,wxupload 3.4,2013-02-17 19:00:00,
2013-02-17 14:07:00,27.7,0.7,32.01,NW,316,5.0,6.0,31,0.00,NA,NA,-99.99,wxupload 3.4,2013-02-17 19:07:00,
2013-02-17 14:12:00,27.9,-1.3,32.01,NNE,29,6.0,6.0,28,0.00,NA,NA,-99.99,wxupload 3.4,2013-02-17 19:12:00,
2013-02-17 14:18:00,28.8,-0.5,32.01,NNE,32,5.0,8.0,28,0.00,NA,NA,-99.99,wxupload 3.4,2013-02-17 19:18:00,
2013-02-17 14:24:00,27.9,-1.3,32.01,NNW,342,5.0,8.0,28,0.00,NA,NA,-99.99,wxupload 3.4,2013-02-17 19:24:00,
2013-02-17 14:31:00,28.4,-0.8,32.01,NW,325,6.0,9.0,28,0.00,NA,NA,-99.99,wxupload 3.4,2013-02-17 19:31:00,
2013-02-17 14:36:00,27.9,-1.3,32.01,NNE,27,5.0,8.0,28,0.00,NA,NA,-99.99,wxupload 3.4,2013-02-17 19:36:00,
2013-02-17 14:42:00,27.7,-1.5,32.01,WNW,285,6.0,8.0,28,0.00,NA,NA,-99.99,wxupload 3.4,2013-02-17 19:42:00,
2013-02-17 14:48:00,28.0,-1.2,32.01,NNE,22,8.0,11.0,28,0.00,NA,NA,-99.99,wxupload 3.4,2013-02-17 19:48:00,
2013-02-17 14:55:00,28.4,-0.8,32.01,NNE,15,3.0,6.0,28,0.00,NA,NA,-99.99,wxupload 3.4,2013-02-17 19:55:00,
2013-02-17 15:00:00,28.8,-0.5,32.01,WSW,248,4.0,5.0,28,0.00,NA,NA,-99.99,wxupload 3.4,2013-02-17 20:00:00,
2013-02-17 15:06:00,27.7,-3.1,32.04,NNE,16,8.0,9.0,26,0.00,NA,NA,-99.99,wxupload 3.4,2013-02-17 20:06:00,
2013-02-17 15:13:00,27.9,-1.3,32.04,NW,322,4.0,9.0,28,0.00,NA,NA,-99.99,wxupload 3.4,2013-02-17 20:13:00,
2013-02-17 15:19:00,27.5,-1.6,32.01,SSW,195,3.0,6.0,28,0.00,NA,NA,-99.99,wxupload 3.4,2013-02-17 20:19:00,
2013-02-17 15:24:00,27.7,-1.5,32.01,NNW,335,0.0,6.0,28,0.00,NA,NA,-99.99,wxupload 3.4,2013-02-17 20:24:00,
2013-02-17 15:30:00,27.7,-1.5,32.01,NNW,328,3.0,4.0,28,0.00,NA,NA,-99.99,wxupload 3.4,2013-02-17 20:30:00,
2013-02-17 15:37:00,27.1,-2.0,32.04,NW,326,3.0,4.0,28,0.00,NA,NA,-99.99,wxupload 3.4,2013-02-17 20:37:00,
2013-02-17 15:42:00,27.1,-2.0,32.04,NW,319,4.0,5.0,28,0.00,NA,NA,-99.99,wxupload 3.4,2013-02-17 20:42:00,
2013-02-17 15:48:00,26.6,-4.0,32.04,West,265,5.0,8.0,26,0.00,NA,NA,-99.99,wxupload 3.4,2013-02-17 20:48:00,
2013-02-17 15:54:00,26.8,-2.3,32.04,NW,317,0.0,4.0,28,0.00,NA,NA,-99.99,wxupload 3.4,2013-02-17 20:54:00,
2013-02-17 16:01:00,26.8,-2.3,32.04,WNW,299,3.0,4.0,28,0.00,NA,NA,-99.99,wxupload 3.4,2013-02-17 21:01:00,
2013-02-17 16:06:00,26.6,-1.7,32.04,NNW,335,3.0,4.0,29,0.00,NA,NA,-99.99,wxupload 3.4,2013-02-17 21:06:00,
2013-02-17 16:12:00,26.2,-2.0,32.04,WNW,290,5.0,9.0,29,0.00,NA,NA,-99.99,wxupload 3.4,2013-02-17 21:12:00,
2013-02-17 16:18:00,26.4,-1.8,32.04,NNW,339,7.0,8.0,29,0.00,NA,NA,-99.99,wxupload 3.4,2013-02-17 21:18:00,
2013-02-17 16:25:00,26.1,-4.5,32.04,West,267,4.0,6.0,26,0.00,NA,NA,-99.99,wxupload 3.4,2013-02-17 21:25:00,
2013-02-17 16:30:00,26.1,-2.2,32.04,NW,312,0.0,5.0,29,0.00,NA,NA,-99.99,wxupload 3.4,2013-02-17 21:30:00,
2013-02-17 16:36:00,25.5,-5.0,32.04,NE,39,8.0,11.0,26,0.00,NA,NA,-99.99,wxupload 3.4,2013-02-17 21:36:00,
2013-02-17 16:42:00,25.2,-5.3,32.04,NNW,338,3.0,9.0,26,0.00,NA,NA,-99.99,wxupload 3.4,2013-02-17 21:42:00,
2013-02-17 16:49:00,25.2,-5.3,32.04,NNW,330,5.0,5.0,26,0.00,NA,NA,-99.99,wxupload 3.4,2013-02-17 21:49:00,
2013-02-17 16:54:00,25.0,-5.4,32.04,NW,317,4.0,6.0,26,0.00,NA,NA,-99.99,wxupload 3.4,2013-02-17 21:54:00,
2013-02-17 17:00:00,24.4,-5.1,32.04,WNW,284,4.0,6.0,27,0.00,NA,NA,-99.99,wxupload 3.4,2013-02-17 22:00:00,
2013-02-17 17:07:00,24.3,-5.3,32.07,NW,309,5.0,8.0,27,0.00,NA,NA,-99.99,wxupload 3.4,2013-02-17 22:07:00,
2013-02-17 17:13:00,24.1,-5.4,32.07,North,353,5.0,5.0,27,0.00,NA,NA,-99.99,wxupload 3.4,2013-02-17 22:13:00,
2013-02-17 17:18:00,23.9,-5.6,32.07,NNE,16,0.0,3.0,27,0.00,NA,NA,-99.99,wxupload 3.4,2013-02-17 22:18:00,
2013-02-17 17:24:00,23.7,-5.7,32.07,NE,56,0.0,6.0,27,0.00,NA,NA,-99.99,wxupload 3.4,2013-02-17 22:24:00,
2013-02-17 17:31:00,23.7,-5.7,32.07,North,9,3.0,8.0,27,0.00,NA,NA,-99.99,wxupload 3.4,2013-02-17 22:31:00,
2013-02-17 17:36:00,23.7,-5.7,32.07,North,357,5.0,5.0,27,0.00,NA,NA,-99.99,wxupload 3.4,2013-02-17 22:36:00,
2013-02-17 17:42:00,23.7,-4.2,32.07,NNE,29,5.0,8.0,29,0.00,NA,NA,-99.99,wxupload 3.4,2013-02-17 22:42:00,
2013-02-17 17:48:00,23.7,-4.2,32.07,NNW,338,4.0,5.0,29,0.00,NA,NA,-99.99,wxupload 3.4,2013-02-17 22:48:00,
2013-02-17 17:55:00,23.5,-5.9,32.07,NW,309,2.0,6.0,27,0.00,NA,NA,-99.99,wxupload 3.4,2013-02-17 22:55:00,
2013-02-17 18:00:00,23.5,-4.4,32.07,ENE,65,2.0,5.0,29,0.00,NA,NA,-99.99,wxupload 3.4,2013-02-17 23:00:00,
2013-02-17 18:06:00,23.4,-6.1,32.10,WNW,300,3.0,5.0,27,0.00,NA,NA,-99.99,wxupload 3.4,2013-02-17 23:06:00,
2013-02-17 18:12:00,23.4,-4.6,32.10,North,353,0.0,6.0,29,0.00,NA,NA,-99.99,wxupload 3.4,2013-02-17 23:12:00,
2013-02-17 18:19:00,23.2,-4.7,32.07,NNW,337,5.0,8.0,29,0.00,NA,NA,-99.99,wxupload 3.4,2013-02-17 23:19:00,
2013-02-17 18:24:00,23.0,-4.1,32.07,NNW,330,5.0,5.0,30,0.00,NA,NA,-99.99,wxupload 3.4,2013-02-17 23:24:00,
2013-02-17 18:30:00,23.0,-4.1,32.07,NNW,338,6.0,10.0,30,0.00,NA,NA,-99.99,wxupload 3.4,2013-02-17 23:30:00,
2013-02-17 18:37:00,23.0,-4.1,32.10,NW,312,6.0,6.0,30,0.00,NA,NA,-99.99,wxupload 3.4,2013-02-17 23:37:00,
2013-02-17 18:42:00,23.0,-4.1,32.10,NNW,345,0.0,5.0,30,0.00,NA,NA,-99.99,wxupload 3.4,2013-02-17 23:42:00,
2013-02-17 18:48:00,22.5,-3.3,32.10,NNE,28,2.0,4.0,32,0.00,NA,NA,-99.99,wxupload 3.4,2013-02-17 23:48:00,
2013-02-17 18:54:00,22.1,-3.6,32.10,North,8,5.0,11.0,32,0.00,NA,NA,-99.99,wxupload 3.4,2013-02-17 23:54:00,
2013-02-17 19:01:00,21.9,-3.7,32.10,NNE,24,0.0,4.0,32,0.00,NA,NA,-99.99,wxupload 3.4,2013-02-18 00:01:00,
2013-02-17 19:06:00,21.9,-3.7,32.10,NNE,18,3.0,6.0,32,0.00,NA,NA,-99.99,wxupload 3.4,2013-02-18 00:06:00,
2013-02-17 19:12:00,21.9,-3.7,32.10,WNW,301,0.0,0.0,32,0.00,NA,NA,-99.99,wxupload 3.4,2013-02-18 00:12:00,
2013-02-17 19:19:00,21.4,-4.2,32.13,WNW,299,2.0,4.0,32,0.00,NA,NA,-99.99,wxupload 3.4,2013-02-18 00:19:00,
2013-02-17 19:24:00,21.4,-4.2,32.13,NW,309,2.0,0.0,32,0.00,NA,NA,-99.99,wxupload 3.4,2013-02-18 00:24:00,
2013-02-17 19:30:00,21.2,-4.4,32.13,WNW,302,0.0,0.0,32,0.00,NA,NA,-99.99,wxupload 3.4,2013-02-18 00:30:00,
2013-02-17 19:36:00,20.8,-4.7,32.13,WNW,299,0.0,0.0,32,0.00,NA,NA,-99.99,wxupload 3.4,2013-02-18 00:36:00,
2013-02-17 19:43:00,20.7,-4.9,32.13,NW,312,2.0,0.0,32,0.00,NA,NA,-99.99,wxupload 3.4,2013-02-18 00:43:00,
2013-02-17 19:48:00,20.5,-4.4,32.13,NNW,345,0.0,0.0,33,0.00,NA,NA,-99.99,wxupload 3.4,2013-02-18 00:48:00,
2013-02-17 19:54:00,20.5,-4.4,32.13,NNE,15,2.0,0.0,33,0.00,NA,NA,-99.99,wxupload 3.4,2013-02-18 00:54:00,
2013-02-17 20:01:00,20.5,-4.4,32.13,NNW,340,3.0,4.0,33,0.00,NA,NA,-99.99,wxupload 3.4,2013-02-18 01:01:00,
2013-02-17 20:07:00,20.7,-4.2,32.13,West,275,6.0,6.0,33,0.00,NA,NA,-99.99,wxupload 3.4,2013-02-18 01:07:00,
2013-02-17 20:12:00,20.7,-4.2,32.13,ESE,102,0.0,0.0,33,0.00,NA,NA,-99.99,wxupload 3.4,2013-02-18 01:12:00,
2013-02-17 20:18:00,20.7,-4.2,32.13,ENE,69,3.0,11.0,33,0.00,NA,NA,-99.99,wxupload 3.4,2013-02-18 01:18:00,
2013-02-17 20:25:00,20.8,-4.1,32.13,NE,42,3.0,4.0,33,0.00,NA,NA,-99.99,wxupload 3.4,2013-02-18 01:25:00,
2013-02-17 20:30:00,20.8,-4.1,32.13,WSW,258,0.0,0.0,33,0.00,NA,NA,-99.99,wxupload 3.4,2013-02-18 01:30:00,
2013-02-17 20:36:00,20.5,-4.4,32.13,NNW,345,3.0,4.0,33,0.00,NA,NA,-99.99,wxupload 3.4,2013-02-18 01:36:00,
2013-02-17 20:42:00,20.5,-4.4,32.13,NNW,327,0.0,3.0,33,0.00,NA,NA,-99.99,wxupload 3.4,2013-02-18 01:42:00,
2013-02-17 20:49:00,20.3,-4.5,32.16,NE,42,0.0,0.0,33,0.00,NA,NA,-99.99,wxupload 3.4,2013-02-18 01:49:00,
2013-02-17 20:54:00,20.3,-4.5,32.16,West,271,2.0,0.0,33,0.00,NA,NA,-99.99,wxupload 3.4,2013-02-18 01:54:00,
2013-02-17 21:00:00,20.5,-4.4,32.16,NNW,332,3.0,4.0,33,0.00,NA,NA,-99.99,wxupload 3.4,2013-02-18 02:00:00,
2013-02-17 21:06:00,21.0,-3.9,32.16,North,353,0.0,4.0,33,0.00,NA,NA,-99.99,wxupload 3.4,2013-02-18 02:06:00,
2013-02-17 21:13:00,21.2,-3.7,32.16,North,357,0.0,4.0,33,0.00,NA,NA,-99.99,wxupload 3.4,2013-02-18 02:13:00,
2013-02-17 21:18:00,20.8,-4.1,32.16,NE,36,0.0,0.0,33,0.00,NA,NA,-99.99,wxupload 3.4,2013-02-18 02:18:00,
2013-02-17 21:24:00,20.7,-4.2,32.16,WNW,301,3.0,4.0,33,0.00,NA,NA,-99.99,wxupload 3.4,2013-02-18 02:24:00,
2013-02-17 21:31:00,20.8,-4.1,32.16,NNW,340,0.0,4.0,33,0.00,NA,NA,-99.99,wxupload 3.4,2013-02-18 02:31:00,
2013-02-17 21:37:00,20.8,-4.1,32.16,WNW,286,2.0,4.0,33,0.00,NA,NA,-99.99,wxupload 3.4,2013-02-18 02:37:00,
2013-02-17 21:42:00,20.8,-4.1,32.16,NW,319,4.0,6.0,33,0.00,NA,NA,-99.99,wxupload 3.4,2013-02-18 02:42:00,
2013-02-17 21:48:00,20.8,-4.1,32.16,NNW,333,0.0,0.0,33,0.00,NA,NA,-99.99,wxupload 3.4,2013-02-18 02:48:00,
2013-02-17 21:55:00,20.8,-4.1,32.16,North,357,5.0,5.0,33,0.00,NA,NA,-99.99,wxupload 3.4,2013-02-18 02:55:00,
2013-02-17 22:00:00,20.8,-4.1,32.16,NW,322,3.0,4.0,33,0.00,NA,NA,-99.99,wxupload 3.4,2013-02-18 03:00:00,
2013-02-17 22:06:00,20.5,-3.7,32.16,NNW,330,5.0,8.0,34,0.00,NA,NA,-99.99,wxupload 3.4,2013-02-18 03:06:00,
2013-02-17 22:12:00,20.7,-4.2,32.16,NNW,343,3.0,4.0,33,0.00,NA,NA,-99.99,wxupload 3.4,2013-02-18 03:12:00,
2013-02-17 22:19:00,20.7,-4.2,32.16,NNW,329,3.0,5.0,33,0.00,NA,NA,-99.99,wxupload 3.4,2013-02-18 03:19:00,
2013-02-17 22:24:00,20.7,-4.2,32.16,NNW,343,6.0,8.0,33,0.00,NA,NA,-99.99,wxupload 3.4,2013-02-18 03:24:00,
2013-02-17 22:30:00,20.7,-4.2,32.16,NNE,23,4.0,6.0,33,0.00,NA,NA,-99.99,wxupload 3.4,2013-02-18 03:30:00,
2013-02-17 22:37:00,20.5,-4.4,32.16,NW,304,3.0,4.0,33,0.00,NA,NA,-99.99,wxupload 3.4,2013-02-18 03:37:00,
2013-02-17 22:43:00,20.3,-4.5,32.16,NW,312,4.0,8.0,33,0.00,NA,NA,-99.99,wxupload 3.4,2013-02-18 03:43:00,
2013-02-17 22:48:00,20.3,-4.5,32.19,NW,317,4.0,4.0,33,0.00,NA,NA,-99.99,wxupload 3.4,2013-02-18 03:48:00,
2013-02-17 22:54:00,20.3,-4.5,32.19,NNW,328,3.0,3.0,33,0.00,NA,NA,-99.99,wxupload 3.4,2013-02-18 03:54:00,
2013-02-17 23:01:00,20.1,-4.7,32.19,North,11,0.0,4.0,33,0.00,NA,NA,-99.99,wxupload 3.4,2013-02-18 04:01:00,
2013-02-17 23:07:00,20.1,-4.7,32.19,WSW,239,4.0,6.0,33,0.00,NA,NA,-99.99,wxupload 3.4,2013-02-18 04:07:00,
2013-02-17 23:12:00,20.3,-4.5,32.19,NNW,340,0.0,0.0,33,0.00,NA,NA,-99.99,wxupload 3.4,2013-02-18 04:12:00,
2013-02-17 23:18:00,20.1,-4.7,32.19,West,278,3.0,4.0,33,0.00,NA,NA,-99.99,wxupload 3.4,2013-02-18 04:18:00,
2013-02-17 23:25:00,20.1,-4.7,32.19,NW,317,4.0,4.0,33,0.00,NA,NA,-99.99,wxupload 3.4,2013-02-18 04:25:00,
2013-02-17 23:30:00,20.1,-4.7,32.19,NNE,21,4.0,6.0,33,0.00,NA,NA,-99.99,wxupload 3.4,2013-02-18 04:30:00,
2013-02-17 23:36:00,20.3,-4.5,32.19,NNW,343,3.0,5.0,33,0.00,NA,NA,-99.99,wxupload 3.4,2013-02-18 04:36:00,
2013-02-17 23:42:00,20.1,-4.7,32.19,NNW,335,3.0,9.0,33,0.00,NA,NA,-99.99,wxupload 3.4,2013-02-18 04:42:00,
2013-02-17 23:49:00,20.3,-4.5,32.19,North,0,5.0,8.0,33,0.00,NA,NA,-99.99,wxupload 3.4,2013-02-18 04:49:00,
2013-02-17 23:54:00,20.3,-4.5,32.19,NNE,27,7.0,8.0,33,0.00,NA,NA,-99.99,wxupload 3.4,2013-02-18 04:54:00,